Regional Weather Roundup
Issued by NWS

Home | Current Version | Previous Version | Text Only | Print | Product List | Glossary Off
Versions: 1 2 3 4 5 6 7 8 9 10 11 12 13 14 15 16 17 18 19 20 21 22 23 24 25 26 27 28 29 30 31 32 33 34 35 36 37 38 39 40 41 42 43 44 45 46 47 48 49 50

000
ASUS44 KMEG 011400
RWRTN
TENNESSEE HOURLY STATE WEATHER ROUNDUP
NATIONAL WEATHER SERVICE MEMPHIS TN
900 AM CDT WED JUL 01 2015

TNZ002-004-019-021-049-052-054-088>092-011500-
WEST TENNESSEE

CITY           SKY/WX    TMP DP  RH WIND       PRES   REMARKS
MEMPHIS INTL   CLOUDY    78  72  81 SW10      29.99R
NWS MEMPHIS      N/A     78 N/A N/A MISG        N/A
JACKSON        CLOUDY    77  73  87 SW8       29.97R
DYERSBURG        N/A    N/A N/A N/A MISG        N/A
PARIS          SUNNY     72  70  94 CALM      29.97R
LEXINGTON      PTSUNNY   75  73  94 SW6       29.98R
$$

TNZ008-025-027-028-033-062-065-066-011500-
NORTH MIDDLE TENNESSEE

CITY           SKY/WX    TMP DP  RH WIND       PRES   REMARKS
NASHVILLE      CLOUDY    76  72  87 SW6       29.99S
CLARKSVILLE    CLOUDY    75  70  84 W5        29.96S
COOKEVILLE     PTSUNNY   75  73  94 SW5       30.01S
CROSSVILLE     MOSUNNY   74  67  78 W8        30.06S
$$

TNZ061-075-076-078-094-096-097-011500-
SOUTH MIDDLE TENNESSEE

CITY           SKY/WX    TMP DP  RH WIND       PRES   REMARKS
FAYETTEVILLE   CLOUDY    73  72  94 SW5       30.03S
TULLAHOMA      MOSUNNY   73  68  83 S8        30.04S
WINCHESTER     MOSUNNY   75  70  83 W7        30.03S
COLUMBIA       MOSUNNY   77  73  88 SW7       29.99R
SHELBYVILLE    MOSUNNY   77  73  88 S7        30.02S
$$

TNZ017-018-042-046-047-011500-
NORTHEAST TENNESSEE

CITY           SKY/WX    TMP DP  RH WIND       PRES   REMARKS
TRI CITIES     CLOUDY    71  66  84 W7        30.03R
ELIZABETHTON   CLOUDY    70  64  83 W6        30.03R
$$

TNZ012-013-036-069-073-074-011500-
CENTRAL EAST TENNESSEE

CITY           SKY/WX    TMP DP  RH WIND       PRES   REMARKS
KNOXVILLE      CLOUDY    73  69  87 SW12      30.02R
OAK RIDGE      CLOUDY    73  69  87 VRB3      30.03S
GATLINBURG     PTSUNNY   75  66  73 SW7       30.02R
$$

TNZ083-085-099-011500-
SOUTHEAST TENNESSEE

CITY           SKY/WX    TMP DP  RH WIND       PRES   REMARKS
CHATTANOOGA    CLOUDY    75  68  78 SE5       30.03S
$$

SKY/WX REPORTED AS FAIR MEANS FEW OR NO CLOUDS BELOW
12 THOUSAND FEET.



USA.gov is the U.S. government's official web portal to all federal, state and local government web resources and services.